User: anonymous   Login
Location: Unspecified
(0.0000°N, 0.0000°E)
Time: 19:03:12
(UTC+00:00)
Language:

GOMX 1 - Orbit

View from above orbital plane
View from above orbital plane
View from above satellite
View from above satellite

Ground track
Ground track

The orbit data is extracted from the following two-line orbital elements,

1 39423U 13066H   17084.86643783 +.00000170 +00000-0 +43714-4 0  9993
2 39423 097.6780 080.1592 0175599 339.2376 020.1753 14.52815532177137
Epoch (UTC): 25 March 2017 20:47:40
Eccentricity: 0.0175599
inclination: 97.6780°
perigee height: 592 km
apogee height: 841 km
right ascension of ascending node: 80.1592°
argument of perigee: 339.2376°
revolutions per day: 14.52815532
mean anomaly at epoch: 20.1753°
orbit number at epoch: 17713

The dashed part of the orbit path shows where the satellite is in the earth's shadow,  

DLR